Weather in Blagoveshchenskoye

Russia / Sverdlovsk Oblast     58°08′21″N   62°57′29″E
temp.,
°C
wind,
m/s
gust,
m/s
humid.,
%
clouds,
%
prec.,
mm/h
press.,
hPa
HPBL,
m
26 july, mon
mon2623:00+10nw23685 0.0 101647
02:00+9w387188 0.0 1016173
05:00+11w3864100 0.0 1016269
08:00+12w3762100 0.0 1017273
11:00+18w354249 0.0 10161647
14:00+18w463897 0.0 10151952
17:00+18wnw574376 0.0 10141236
20:00+16wsw355664 0.0 1014168
27 july, tue
tue2723:00+13wsw366613 0.0 1013113
02:00+10wsw39855 0.0 1013174
05:00+9sw389224 0.0 1011151
08:00+16wsw6116340 0.0 1010591
11:00+12w4995100 1.3 1009463
14:00+18wsw685948 0.6 10081442
17:00+20nw573520 0.7 10072061
20:00+16nnw485040 0.0 1008559
28 july, wed
wed2823:00+10nw376448 0.0 1009144
02:00+8wnw36775 0.0 1009116
05:00+5w359493 0.0 100989
08:00+12w476256 0.0 1008689
11:00+10w3789100 0.6 1008428
14:00+12nw678339 1.4 1008954
17:00+13nw4755100 1.5 10091668
20:00+13nw265511 0.0 1009536
29 july, thu
thu2923:00+10wsw2460100 0.0 1009104
02:00+8w3765100 0.0 1009184
05:00+8w3870100 0.0 1009275
08:00+10w3568100 0.0 1009387
11:00+11wsw357290 0.0 1009669
14:00+16w3654100 0.1 10081637
17:00+18w1449100 0.1 10071402
20:00+16se2562100 0.0 1006151
30 july, fri
fri3023:00+11ssw359313 0.1 100599
02:00+12w239612 0.0 100585
05:00+10wnw1197100 0.0 100511
08:00+14nw117897 0.0 1005210
11:00+20wsw235155 0.0 1005928
14:00+25sw344655 0.1 10041837
17:00+25sw354817 0.1 10031594
20:00+21ssw2267100 0.1 100334